[[{"header":{"parameterUnit":"m.s-1","parameterCategory":1,"la1":30.2991,"la2":30.254,"lo1":-89.0895,"lo2":-89.0444,"dy":0.0017,"dx":0.0017,"nx":28,"ny":28,"refTime":"2024-05-21T21:00:00:Z","depth":0,"parameterNumber":2,"parameterNumberName":"U-component_of_WINDS"},"data":[0,0,0,0,0,0,0,0,0,0,0,0,0,0,0,0,0,0,0,0,0,0,0,0,0,0,0,0,0,0,0,0,0,0,0,0,0,0,0,0,0,0,0,0,0,0,0,0,0,0,0,0,0,0,0,0,0,0,-0.2038,-0.2039,0,-0.2154,-0.2155,-0.2156,-0.2231,-0.2231,-0.2232,-0.2232,-0.2351,-0.2354,-0.2357,0,0,0,0,0,0,0,0,0,0,0,0,0,-0.1881,-0.1884,-0.2037,-0.2039,-0.204,-0.2154,-0.2155,-0.2157,-0.2231,-0.2231,-0.2232,-0.2232,-0.235,-0.2354,-0.2357,0,0,0,0,0,0,0,0,0,0,0,0,0,-0.1968,-0.1884,-0.2037,-0.2091,-0.2097,-0.2153,-0.2155,-0.2157,-0.2231,-0.2231,-0.2232,-0.2233,-0.2349,-0.2353,-0.2357,-0.2369,0,0,-0.237,-0.2372,0,0,0,0,0,0,0,0,-0.1963,-0.1974,-0.2082,-0.2087,-0.2094,-0.2179,-0.2144,-0.2228,-0.2231,-0.218,-0.2232,-0.2233,-0.2293,-0.2302,-0.2322,-0.2375,-0.238,-0.237,-0.2373,-0.2375,-0.2376,0,0,0,0,0,0,0,-0.1957,-0.1969,-0.2084,-0.2083,-0.2091,-0.211,-0.2123,-0.216,-0.2231,-0.2184,-0.219,-0.2203,-0.2297,-0.2318,-0.2326,-0.2382,-0.237,-0.2374,-0.2376,-0.2378,-0.2452,-0.2451,0,0,0,0,0,0,-0.1943,-0.1964,-0.208,-0.2087,-0.2029,-0.2112,-0.2127,-0.2151,-0.2231,-0.2244,-0.2202,-0.2206,-0.2311,-0.2321,-0.233,-0.235,-0.2375,-0.2378,-0.2381,-0.2452,-0.2452,-0.2451,0,0,0,0,0,0,-0.1939,-0.1952,-0.2075,-0.2027,-0.2044,-0.2114,-0.214,-0.2153,-0.2174,-0.2245,-0.2258,-0.2211,-0.2312,-0.2324,-0.2359,-0.2356,-0.238,-0.2384,-0.2453,-0.2452,-0.2452,-0.239,0,0,0,0,0,0,-0.1934,-0.195,-0.1955,-0.2027,-0.2046,-0.2102,-0.214,-0.2155,-0.2181,-0.2187,-0.2256,-0.2268,-0.2313,-0.2353,-0.2363,-0.2362,-0.2387,-0.2454,-0.2453,-0.2452,-0.2393,-0.2387,-0.2382,0,0,0,0,0,-0.1928,-0.1933,-0.1955,-0.1968,-0.2054,-0.2101,-0.2113,-0.2164,-0.218,-0.2186,-0.2232,-0.2266,-0.2354,-0.2356,-0.2368,-0.2368,-0.2454,-0.2453,-0.2452,-0.2395,-0.2388,-0.2383,0,0,0,0,0,0,-0.1858,-0.1943,-0.1968,-0.1996,-0.2041,-0.2114,-0.2122,-0.2155,-0.2196,-0.22,-0.2263,-0.2278,-0.2307,-0.2341,-0.2341,-0.2385,-0.2408,-0.241,-0.2361,-0.2355,-0.235,-0.2341,-0.2391,0,0,0,0,0,-0.1846,-0.1877,-0.195,-0.1967,-0.1989,-0.2051,-0.2074,-0.211,-0.2159,-0.2178,-0.2227,-0.2273,-0.2312,-0.2335,-0.2374,-0.2398,-0.2415,-0.2404,-0.2399,-0.2395,-0.2395,-0.2412,-0.2408,-0.2447,-0.2447,-0.2447,0,0,-0.1821,-0.1871,-0.1887,-0.1955,-0.1994,-0.2025,-0.2067,-0.2098,-0.2122,-0.2183,-0.2219,-0.2256,-0.2313,-0.2342,-0.2358,-0.2372,-0.2388,-0.2393,-0.2389,-0.2392,-0.241,-0.2406,-0.2403,-0.2447,-0.2447,-0.2447,0,0,-0.1792,-0.1833,-0.1852,-0.1891,-0.195,-0.1992,-0.1997,-0.2065,-0.2092,-0.2129,-0.2176,-0.2207,-0.2271,-0.2309,-0.2337,-0.2325,-0.2358,-0.2336,-0.2309,-0.2325,-0.2321,-0.2319,-0.2315,-0.2313,-0.2336,-0.2336,-0.2336,0,-0.1753,-0.1802,-0.1858,-0.1887,-0.1916,-0.1974,-0.1994,-0.2029,-0.2097,-0.2116,-0.2131,-0.2215,-0.2256,-0.2296,-0.2294,-0.2314,-0.2322,-0.2328,-0.2317,-0.2316,-0.2314,-0.2311,-0.2309,-0.2333,-0.2333,-0.2334,-0.2334,0,-0.1753,-0.1786,-0.1795,-0.186,-0.189,-0.1915,-0.1975,-0.1999,-0.2033,-0.2074,-0.2112,-0.2164,-0.2216,-0.2228,-0.2261,-0.2274,-0.2281,-0.2305,-0.2331,-0.2306,-0.2305,-0.2304,-0.2328,-0.233,-0.2331,-0.2331,0,0,-0.1681,-0.1778,-0.178,-0.1811,-0.1881,-0.1908,-0.1936,-0.1987,-0.2006,-0.2052,-0.2078,-0.2132,-0.2156,-0.2188,-0.2227,-0.224,-0.2228,-0.2264,-0.2266,-0.2256,-0.2246,-0.2226,-0.2224,-0.2251,-0.2251,-0.2251,-0.2241,0,-0.1662,-0.1714,-0.1767,-0.1801,-0.1833,-0.1889,-0.1914,-0.196,-0.1999,-0.2033,-0.2077,-0.2115,-0.2143,-0.2163,-0.2179,-0.2226,-0.2227,-0.2227,-0.2276,-0.2277,-0.2259,-0.2223,-0.2202,-0.219,-0.2241,-0.2241,-0.2241,0,-0.1646,-0.169,-0.1728,-0.1796,-0.1812,-0.1833,-0.1884,-0.1916,-0.197,-0.1998,-0.2034,-0.2075,-0.2108,-0.2131,-0.2178,-0.2177,-0.2201,-0.2227,-0.2228,-0.2234,-0.2257,-0.2228,-0.2187,-0.2185,-0.224,-0.224,-0.224,0,-0.159,-0.1659,-0.1691,-0.1715,-0.1796,-0.181,-0.1844,-0.1899,-0.1926,-0.1972,-0.1991,-0.2039,-0.2066,-0.2103,-0.2156,-0.2167,-0.2198,-0.2225,-0.2223,-0.2221,-0.2226,-0.2225,-0.2188,-0.2241,-0.2241,-0.2241,-0.2241,0,-0.1563,-0.1584,-0.1667,-0.1686,-0.1712,-0.1772,-0.1796,-0.1835,-0.1884,-0.1913,-0.1965,-0.1991,-0.206,-0.2095,-0.2137,-0.2171,-0.2182,-0.2206,-0.2217,-0.2201,-0.2198,-0.2217,-0.2219,-0.2241,-0.2241,-0.2241,-0.2241,0,-0.1504,-0.1561,-0.1599,-0.1673,-0.1692,-0.1707,-0.1771,-0.1793,-0.1836,-0.1872,-0.1884,-0.1951,-0.1995,-0.2053,-0.2114,-0.2143,-0.2171,-0.2188,-0.2152,-0.2159,-0.2154,-0.2153,-0.2128,-0.2128,-0.218,-0.2179,-0.2179,0,-0.1483,-0.1501,-0.1577,-0.16,-0.1633,-0.1669,-0.1698,-0.1759,-0.1787,-0.1851,-0.1865,-0.1913,-0.1954,-0.2021,-0.2076,-0.2124,-0.2143,-0.2131,-0.215,-0.2135,-0.2143,-0.2141,-0.2144,-0.2125,-0.2125,-0.2124,-0.2123,0,-0.144,-0.1467,-0.1507,-0.1556,-0.1589,-0.1631,-0.1676,-0.1692,-0.1762,-0.1791,-0.1837,-0.1869,-0.1933,-0.198,-0.2035,-0.2072,-0.2109,-0.2117,-0.2119,-0.2103,-0.2081,-0.2093,-0.2139,-0.2117,-0.2118,-0.2118,-0.2118,-0.2119,-0.14,-0.1418,-0.1475,-0.1518,-0.1558,-0.1598,-0.1623,-0.1669,-0.1708,-0.1765,-0.1799,-0.1843,-0.1899,-0.1977,-0.2012,-0.2049,-0.2063,-0.2066,-0.2067,-0.2066,-0.2061,-0.2076,-0.2059,-0.2059,-0.2059,-0.206,-0.206,0,-0.1359,-0.1399,-0.1437,-0.1498,-0.1532,-0.1566,-0.1617,-0.1643,-0.1681,-0.173,-0.177,-0.1823,-0.187,-0.1929,-0.198,-0.1998,-0.2017,-0.2009,-0.2008,-0.2016,-0.2045,-0.2038,-0.1993,-0.1993,-0.1993,-0.1993,-0.1993,-0.1993,-0.1342,-0.1375,-0.141,-0.1464,-0.1504,-0.1548,-0.1575,-0.1613,-0.1653,-0.1709,-0.1748,-0.1787,-0.1841,-0.1896,-0.1941,-0.1957,-0.1974,-0.1961,-0.1982,-0.2008,-0.2014,-0.202,-0.2014,-0.1964,-0.1964,-0.1951,-0.1951,-0.195]},{"header":{"parameterUnit":"m.s-1","parameterCategory":1,"la1":30.2991,"la2":30.254,"lo1":-89.0895,"lo2":-89.0444,"dy":0.0017,"dx":0.0017,"nx":28,"ny":28,"refTime":"2024-05-21T21:00:00:Z","depth":0,"parameterNumber":3,"parameterNumberName":"V-component_of_WINDS"},"data":[0,0,0,0,0,0,0,0,0,0,0,0,0,0,0,0,0,0,0,0,0,0,0,0,0,0,0,0,0,0,0,0,0,0,0,0,0,0,0,0,0,0,0,0,0,0,0,0,0,0,0,0,0,0,0,0,0,0,3.9591,3.9591,0,3.9585,3.9585,3.9585,3.9579,3.9579,3.9579,3.9579,3.957,3.957,3.957,0,0,0,0,0,0,0,0,0,0,0,0,0,3.9597,3.9597,3.9591,3.9591,3.9591,3.9585,3.9585,3.9585,3.9579,3.9579,3.9579,3.9579,3.957,3.957,3.957,0,0,0,0,0,0,0,0,0,0,0,0,0,3.9593,3.9597,3.9591,3.9588,3.9587,3.9585,3.9585,3.9585,3.9579,3.9579,3.9579,3.9579,3.957,3.957,3.957,3.957,0,0,3.9569,3.9569,0,0,0,0,0,0,0,0,3.9593,3.9593,3.9588,3.9588,3.9587,3.9583,3.9584,3.958,3.9579,3.9582,3.9579,3.9579,3.9574,3.9573,3.9572,3.9569,3.9569,3.9569,3.9568,3.9568,3.9568,0,0,0,0,0,0,0,3.9593,3.9593,3.9589,3.9588,3.9588,3.9586,3.9585,3.9583,3.9579,3.9582,3.9581,3.9581,3.9574,3.9573,3.9572,3.9569,3.9569,3.9568,3.9568,3.9568,3.9566,3.9566,0,0,0,0,0,0,3.9595,3.9593,3.9589,3.9588,3.959,3.9586,3.9585,3.9584,3.9579,3.9578,3.9581,3.9581,3.9573,3.9572,3.9572,3.9572,3.9568,3.9568,3.9568,3.9566,3.9566,3.9566,0,0,0,0,0,0,3.9595,3.9594,3.9589,3.9591,3.959,3.9586,3.9585,3.9584,3.9583,3.9578,3.9577,3.9581,3.9573,3.9572,3.9571,3.9572,3.9568,3.9568,3.9566,3.9566,3.9566,3.9572,0,0,0,0,0,0,3.9595,3.9594,3.9595,3.9591,3.959,3.9588,3.9585,3.9584,3.9583,3.9582,3.9577,3.9577,3.9573,3.9571,3.957,3.9571,3.9568,3.9566,3.9566,3.9566,3.9572,3.9572,3.9573,0,0,0,0,0,3.9595,3.9596,3.9595,3.9594,3.959,3.9588,3.9588,3.9585,3.9583,3.9583,3.958,3.9577,3.9572,3.9571,3.957,3.9571,3.9566,3.9566,3.9566,3.9571,3.9572,3.9573,0,0,0,0,0,0,3.9599,3.9595,3.9594,3.9593,3.9591,3.9588,3.9587,3.9585,3.9583,3.9583,3.9578,3.9577,3.9576,3.9573,3.9572,3.9571,3.9568,3.9568,3.9573,3.9573,3.9574,3.9574,3.9567,0,0,0,0,0,3.96,3.9599,3.9596,3.9596,3.9595,3.9592,3.9591,3.9588,3.9586,3.9584,3.9581,3.9578,3.9576,3.9575,3.9572,3.9572,3.957,3.9572,3.9572,3.9573,3.9573,3.9573,3.9573,3.9567,3.9567,3.9567,0,0,3.9601,3.9599,3.9599,3.9596,3.9595,3.9594,3.9591,3.959,3.9589,3.9584,3.9583,3.958,3.9577,3.9576,3.9575,3.9573,3.9575,3.9573,3.9574,3.9573,3.9573,3.9574,3.9574,3.9567,3.9567,3.9567,0,0,3.9603,3.9602,3.9602,3.9601,3.9598,3.9596,3.9596,3.9593,3.9592,3.959,3.9587,3.9586,3.9582,3.958,3.9578,3.9581,3.9578,3.9581,3.9584,3.9584,3.9584,3.9585,3.9586,3.9586,3.9581,3.9581,3.9581,0,3.9605,3.9604,3.9602,3.9602,3.9601,3.9598,3.9598,3.9596,3.9593,3.9592,3.9591,3.9587,3.9584,3.9583,3.9584,3.9583,3.9582,3.9581,3.9584,3.9585,3.9585,3.9586,3.9587,3.9581,3.9581,3.9581,3.9581,0,3.9607,3.9607,3.9607,3.9605,3.9604,3.9604,3.9601,3.9601,3.9599,3.9597,3.9596,3.9593,3.959,3.959,3.9587,3.9588,3.9588,3.9585,3.9582,3.9586,3.9587,3.9587,3.9581,3.9581,3.9581,3.9581,0,0,3.961,3.9608,3.9608,3.9608,3.9606,3.9605,3.9605,3.9603,3.9603,3.9601,3.9601,3.9598,3.9597,3.9595,3.9592,3.9592,3.9595,3.959,3.959,3.9591,3.9597,3.9598,3.9599,3.9594,3.9594,3.9594,3.9597,0,3.9612,3.9612,3.9611,3.9611,3.9611,3.9608,3.9608,3.9607,3.9605,3.9604,3.9602,3.9601,3.9599,3.9598,3.9598,3.9595,3.9596,3.9595,3.9593,3.9593,3.9594,3.9599,3.96,3.9603,3.9597,3.9597,3.9597,0,3.9614,3.9614,3.9614,3.9613,3.9613,3.9613,3.9612,3.9611,3.9609,3.9608,3.9607,3.9605,3.9604,3.9602,3.9601,3.96,3.9599,3.9598,3.9598,3.9597,3.9595,3.9598,3.9604,3.9605,3.9598,3.9598,3.9598,0,3.9617,3.9616,3.9617,3.9616,3.9615,3.9615,3.9614,3.9612,3.9612,3.9611,3.961,3.9609,3.9608,3.9607,3.9604,3.9603,3.9604,3.9601,3.9602,3.9603,3.9602,3.9602,3.9608,3.9602,3.9602,3.9602,3.9602,0,3.9619,3.9619,3.9618,3.9618,3.9619,3.9617,3.9617,3.9616,3.9615,3.9615,3.9613,3.9612,3.9609,3.9608,3.9606,3.9606,3.9606,3.9604,3.9604,3.9605,3.9605,3.9604,3.9603,3.9602,3.9602,3.9602,3.9602,0,3.9622,3.9621,3.9621,3.962,3.962,3.962,3.9619,3.9619,3.9618,3.9618,3.9618,3.9616,3.9615,3.9612,3.961,3.9609,3.961,3.9608,3.961,3.961,3.9611,3.9611,3.9616,3.9617,3.9611,3.9611,3.9611,0,3.9623,3.9623,3.9623,3.9623,3.9623,3.9623,3.9623,3.9621,3.9621,3.962,3.962,3.9619,3.9619,3.9617,3.9615,3.9614,3.9613,3.9615,3.9613,3.9614,3.9613,3.9613,3.9613,3.9615,3.9615,3.9615,3.9615,0,3.9625,3.9625,3.9625,3.9626,3.9626,3.9626,3.9625,3.9625,3.9624,3.9624,3.9623,3.9623,3.9622,3.9621,3.962,3.9619,3.9617,3.9616,3.9616,3.9617,3.9618,3.9617,3.9611,3.9616,3.9616,3.9616,3.9616,3.9616,3.9627,3.9628,3.9628,3.9628,3.9628,3.9628,3.9629,3.9628,3.9628,3.9628,3.9627,3.9627,3.9625,3.9624,3.9623,3.9623,3.9621,3.9622,3.9622,3.9622,3.9622,3.9619,3.9622,3.9622,3.9622,3.9622,3.9622,0,3.963,3.963,3.963,3.9631,3.9631,3.963,3.963,3.963,3.9631,3.963,3.963,3.963,3.963,3.9628,3.9627,3.9628,3.9627,3.9627,3.9627,3.9627,3.9623,3.9623,3.9628,3.9628,3.9628,3.9628,3.9628,3.9628,3.9631,3.9632,3.9632,3.9633,3.9633,3.9634,3.9634,3.9634,3.9634,3.9634,3.9634,3.9633,3.9633,3.9632,3.9632,3.9631,3.9631,3.9632,3.9631,3.9628,3.9627,3.9627,3.9626,3.9632,3.9632,3.9635,3.9635,3.9635]}]]